Location: Unspecified
(0.0000°N, 0.0000°E)
Time: 08:55:46
(UTC+00:00)

Explorer 11/Cluster Stage 4 - Pass Details

Date: 15 July 2020
Orbit: 467 x 1259 km, 28.8° (Epoch: 03 August)

Event Time Altitude Azimuth Distance (km) Brightness Sun altitude
Rises 07:00:55 0° 260° (W) 2,481 8.5 12.8°
Reaches altitude 10° 07:03:17 10° 274° (W) 1,615 7.7 13.3°
Maximum altitude 07:06:20 25° 332° (NNW) 1,006 7.2 14.0°
Drops below altitude 10° 07:09:37 10° 29° (NNE) 1,746 9.3 14.8°
Sets 07:12:18 0° 42° (NE) 2,737 10.6 15.4°
